NORTHERN QUEENS  -  Freeze Warning Freeze Warning        SOUTHERN QUEENS  -  Freeze Warning Freeze Warning      

Active alerts

Northern Queens
  Details for Northern Queens Freeze Warning
Southern Queens
  Details for Southern Queens Freeze Warning


WXM80 ListenWXM80 Stop

You find our weather info also at:

UK Metoffice

WeatherCloud

Weather Underground

Northeastern Weather Network

AWEKAS

Citizen Weather Observer Program (CWOP)

HAMweather, WeatherForYou, PWS Weather


Weather Underground History page Text

Daily Summary for January 29, 2018 Units:  Both    English   Metric
« Previous Day
Next Day »
Daily Weekly Monthly Yearly Custom
  High: Low: Average:
Temperature: 40.4 °F /  4.7 °C 32.6 °F /  0.3 °C 37.6 °F /  3.1 °C
Dew Point: 38.7 °F /  3.7 °C 26.9 °F /  -2.8 °C 33.8 °F /  1 °C
Humidity: 95 % 76 % 86 %
Wind Speed: 14.5 mph /  23.3 km/h - 4.8 mph /  7.7 km/h
Wind Gust: 21.9 mph /  35.2 km/h - -
Wind:- - ENE
Pressure: 30.01 in /  1016.1 hPa 29.76 in /  1007.7 hPa -
Precipitation: 0.00 in /  0 mm    
Historical Graphs
 
 
Tabular Data for January 29, 2018
Time Temperature Dew Point Pressure Wind Wind Speed Wind Gust Humidity Rainfall Rate (Hourly)
00:00 40.2 °F /  4.6 °C 38.6 °F /  3.7 °C 30.00 in /  1015.8 hPa WSW 0.3 mph /  0.5 km/h 2.3 mph /  3.7 km/h 94 % 0.00 in /  0 mm
00:05 40.0 °F /  4.4 °C 38.7 °F /  3.7 °C 30.00 in /  1015.8 hPa Calm     95 % 0.00 in /  0 mm
00:10 40.0 °F /  4.4 °C 38.4 °F /  3.6 °C 30.00 in /  1015.8 hPa Calm     94 % 0.00 in /  0 mm
00:15 39.8 °F /  4.3 °C 38.2 °F /  3.4 °C 30.00 in /  1015.8 hPa Calm     94 % 0.00 in /  0 mm
00:20 39.7 °F /  4.3 °C 38.1 °F /  3.4 °C 30.00 in /  1015.8 hPa Calm     94 % 0.00 in /  0 mm
00:25 39.6 °F /  4.2 °C 38.0 °F /  3.3 °C 30.00 in /  1015.8 hPa Calm     94 % 0.00 in /  0 mm
00:30 39.5 °F /  4.2 °C 37.9 °F /  3.3 °C 30.00 in /  1015.8 hPa Calm     94 % 0.00 in /  0 mm
00:36 39.4 °F /  4.1 °C 37.8 °F /  3.2 °C 30.00 in /  1015.8 hPa Calm   1.0 mph /  1.6 km/h 94 % 0.00 in /  0 mm
00:41 39.3 °F /  4.1 °C 37.7 °F /  3.2 °C 30.00 in /  1015.8 hPa Calm     94 % 0.00 in /  0 mm
00:46 39.2 °F /  4 °C 37.6 °F /  3.1 °C 30.00 in /  1015.8 hPa Calm     94 % 0.00 in /  0 mm
00:51 39.1 °F /  3.9 °C 37.5 °F /  3.1 °C 30.00 in /  1015.8 hPa Calm   1.0 mph /  1.6 km/h 94 % 0.00 in /  0 mm
00:56 39.0 °F /  3.9 °C 37.5 °F /  3.1 °C 30.00 in /  1015.8 hPa Calm     94 % 0.00 in /  0 mm
01:01 38.9 °F /  3.8 °C 37.3 °F /  2.9 °C 30.00 in /  1015.8 hPa Calm     94 % 0.00 in /  0 mm
01:06 38.9 °F /  3.8 °C 37.3 °F /  2.9 °C 30.00 in /  1015.8 hPa Calm     94 % 0.00 in /  0 mm
01:11 38.8 °F /  3.8 °C 37.5 °F /  3.1 °C 30.00 in /  1015.8 hPa Calm     95 % 0.00 in /  0 mm
01:16 38.8 °F /  3.8 °C 37.2 °F /  2.9 °C 30.00 in /  1015.8 hPa Calm     94 % 0.00 in /  0 mm
01:21 38.8 °F /  3.8 °C 37.2 °F /  2.9 °C 30.00 in /  1015.8 hPa Calm     94 % 0.00 in /  0 mm
01:26 38.7 °F /  3.7 °C 37.1 °F /  2.8 °C 30.00 in /  1015.8 hPa Calm     94 % 0.00 in /  0 mm
01:31 38.7 °F /  3.7 °C 37.1 °F /  2.8 °C 30.00 in /  1015.8 hPa Calm     94 % 0.00 in /  0 mm
01:36 38.6 °F /  3.7 °C 37.0 °F /  2.8 °C 30.00 in /  1015.8 hPa Calm     94 % 0.00 in /  0 mm
01:41 38.6 °F /  3.7 °C 37.3 °F /  2.9 °C 30.00 in /  1015.8 hPa Calm     95 % 0.00 in /  0 mm
01:46 38.5 °F /  3.6 °C 37.2 °F /  2.9 °C 30.00 in /  1015.8 hPa Calm     95 % 0.00 in /  0 mm
01:51 38.4 °F /  3.6 °C 37.1 °F /  2.8 °C 30.01 in /  1016.1 hPa WSW 0.6 mph /  1 km/h 2.3 mph /  3.7 km/h 95 % 0.00 in /  0 mm
01:56 38.4 °F /  3.6 °C 37.1 °F /  2.8 °C 30.00 in /  1015.8 hPa Calm     95 % 0.00 in /  0 mm
02:01 38.3 °F /  3.5 °C 37.0 °F /  2.8 °C 30.00 in /  1015.8 hPa WSW 0.2 mph /  0.3 km/h 1.2 mph /  1.9 km/h 95 % 0.00 in /  0 mm
02:06 38.3 °F /  3.5 °C 37.0 °F /  2.8 °C 30.00 in /  1015.8 hPa Calm     95 % 0.00 in /  0 mm
02:11 38.2 °F /  3.4 °C 36.9 °F /  2.7 °C 30.01 in /  1016.1 hPa Calm     95 % 0.00 in /  0 mm
02:17 38.1 °F /  3.4 °C 36.8 °F /  2.7 °C 30.01 in /  1016.1 hPa Calm   1.0 mph /  1.6 km/h 95 % 0.00 in /  0 mm
02:22 38.0 °F /  3.3 °C 36.7 °F /  2.6 °C 30.00 in /  1015.8 hPa Calm     95 % 0.00 in /  0 mm
02:27 38.0 °F /  3.3 °C 36.7 °F /  2.6 °C 30.00 in /  1015.8 hPa Calm     95 % 0.00 in /  0 mm
02:32 37.9 °F /  3.3 °C 36.6 °F /  2.6 °C 30.00 in /  1015.8 hPa Calm     95 % 0.00 in /  0 mm
02:37 37.8 °F /  3.2 °C 36.5 °F /  2.5 °C 30.00 in /  1015.8 hPa WNW 1.0 mph /  1.6 km/h 2.3 mph /  3.7 km/h 95 % 0.00 in /  0 mm
02:42 37.7 °F /  3.2 °C 36.4 °F /  2.4 °C 30.00 in /  1015.8 hPa NNE 2.0 mph /  3.2 km/h 3.5 mph /  5.6 km/h 95 % 0.00 in /  0 mm
02:47 37.6 °F /  3.1 °C 36.0 °F /  2.2 °C 30.00 in /  1015.8 hPa NNE 1.3 mph /  2.1 km/h 2.3 mph /  3.7 km/h 94 % 0.00 in /  0 mm
02:52 37.4 °F /  3 °C 35.8 °F /  2.1 °C 29.99 in /  1015.5 hPa NNE 0.5 mph /  0.8 km/h 4.6 mph /  7.4 km/h 94 % 0.00 in /  0 mm
02:57 37.3 °F /  2.9 °C 35.7 °F /  2.1 °C 30.00 in /  1015.8 hPa NNE 1.7 mph /  2.7 km/h 3.5 mph /  5.6 km/h 94 % 0.00 in /  0 mm
03:02 37.2 °F /  2.9 °C 35.6 °F /  2 °C 29.99 in /  1015.5 hPa North 1.7 mph /  2.7 km/h 4.6 mph /  7.4 km/h 94 % 0.00 in /  0 mm
03:07 37.1 °F /  2.8 °C 35.5 °F /  1.9 °C 29.99 in /  1015.5 hPa NNE 3.3 mph /  5.3 km/h 4.0 mph /  6.4 km/h 94 % 0.00 in /  0 mm
03:12 37.0 °F /  2.8 °C 35.4 °F /  1.9 °C 29.98 in /  1015.1 hPa North 2.0 mph /  3.2 km/h 4.6 mph /  7.4 km/h 94 % 0.00 in /  0 mm
03:17 36.9 °F /  2.7 °C 35.3 °F /  1.8 °C 29.98 in /  1015.1 hPa NNE 0.2 mph /  0.3 km/h 1.2 mph /  1.9 km/h 94 % 0.00 in /  0 mm
03:22 36.9 °F /  2.7 °C 35.3 °F /  1.8 °C 29.98 in /  1015.1 hPa NNE 1.3 mph /  2.1 km/h 3.5 mph /  5.6 km/h 94 % 0.00 in /  0 mm
03:27 36.8 °F /  2.7 °C 35.2 °F /  1.8 °C 29.98 in /  1015.1 hPa NNE 2.5 mph /  4 km/h 4.6 mph /  7.4 km/h 94 % 0.00 in /  0 mm
03:32 36.8 °F /  2.7 °C 35.2 °F /  1.8 °C 29.97 in /  1014.8 hPa North 3.1 mph /  5 km/h 4.6 mph /  7.4 km/h 94 % 0.00 in /  0 mm
03:37 36.7 °F /  2.6 °C 35.1 °F /  1.7 °C 29.97 in /  1014.8 hPa NNE 5.1 mph /  8.2 km/h 5.8 mph /  9.3 km/h 94 % 0.00 in /  0 mm
03:42 36.6 °F /  2.6 °C 34.8 °F /  1.6 °C 29.97 in /  1014.8 hPa NNE 4.5 mph /  7.2 km/h 8.1 mph /  13 km/h 93 % 0.00 in /  0 mm
03:47 36.7 °F /  2.6 °C 34.9 °F /  1.6 °C 29.97 in /  1014.8 hPa NNE 5.9 mph /  9.5 km/h 9.2 mph /  14.8 km/h 93 % 0.00 in /  0 mm
03:52 36.8 °F /  2.7 °C 35.0 °F /  1.7 °C 29.97 in /  1014.8 hPa NNE 3.9 mph /  6.3 km/h 8.1 mph /  13 km/h 93 % 0.00 in /  0 mm
03:58 36.8 °F /  2.7 °C 34.7 °F /  1.5 °C 29.97 in /  1014.8 hPa NNE 5.5 mph /  8.9 km/h 5.8 mph /  9.3 km/h 92 % 0.00 in /  0 mm
04:03 36.9 °F /  2.7 °C 34.5 °F /  1.4 °C 29.97 in /  1014.8 hPa North 3.4 mph /  5.5 km/h 5.8 mph /  9.3 km/h 91 % 0.00 in /  0 mm
04:08 36.9 °F /  2.7 °C 34.5 °F /  1.4 °C 29.97 in /  1014.8 hPa North 4.7 mph /  7.6 km/h 4.7 mph /  7.6 km/h 91 % 0.00 in /  0 mm
04:13 36.9 °F /  2.7 °C 34.2 °F /  1.2 °C 29.96 in /  1014.4 hPa NNE 3.0 mph /  4.8 km/h 5.8 mph /  9.3 km/h 90 % 0.00 in /  0 mm
04:18 37.0 °F /  2.8 °C 34.3 °F /  1.3 °C 29.97 in /  1014.8 hPa North 3.5 mph /  5.6 km/h 6.9 mph /  11.1 km/h 90 % 0.00 in /  0 mm
04:23 37.0 °F /  2.8 °C 34.3 °F /  1.3 °C 29.98 in /  1015.1 hPa North 3.0 mph /  4.8 km/h 8.1 mph /  13 km/h 90 % 0.00 in /  0 mm
04:28 37.1 °F /  2.8 °C 34.2 °F /  1.2 °C 29.98 in /  1015.1 hPa NNE 0.9 mph /  1.4 km/h 3.5 mph /  5.6 km/h 89 % 0.00 in /  0 mm
04:33 37.0 °F /  2.8 °C 34.1 °F /  1.2 °C 29.98 in /  1015.1 hPa NNE 2.5 mph /  4 km/h 5.8 mph /  9.3 km/h 89 % 0.00 in /  0 mm
04:38 37.0 °F /  2.8 °C 34.1 °F /  1.2 °C 29.97 in /  1014.8 hPa NNE 1.6 mph /  2.6 km/h 8.1 mph /  13 km/h 89 % 0.00 in /  0 mm
04:43 37.0 °F /  2.8 °C 34.1 °F /  1.2 °C 29.97 in /  1014.8 hPa North 3.2 mph /  5.1 km/h 5.8 mph /  9.3 km/h 89 % 0.00 in /  0 mm
04:48 37.0 °F /  2.8 °C 34.1 °F /  1.2 °C 29.98 in /  1015.1 hPa NNE 2.4 mph /  3.9 km/h 3.5 mph /  5.6 km/h 89 % 0.00 in /  0 mm
04:53 37.0 °F /  2.8 °C 33.8 °F /  1 °C 29.98 in /  1015.1 hPa NNE 1.2 mph /  1.9 km/h 5.8 mph /  9.3 km/h 88 % 0.00 in /  0 mm
04:58 37.0 °F /  2.8 °C 33.8 °F /  1 °C 29.98 in /  1015.1 hPa NNE 2.3 mph /  3.7 km/h 3.5 mph /  5.6 km/h 88 % 0.00 in /  0 mm
05:03 37.0 °F /  2.8 °C 34.1 °F /  1.2 °C 29.98 in /  1015.1 hPa NNE 1.5 mph /  2.4 km/h 3.5 mph /  5.6 km/h 89 % 0.00 in /  0 mm
05:08 37.0 °F /  2.8 °C 34.1 °F /  1.2 °C 29.98 in /  1015.1 hPa NNE 0.1 mph /  0.2 km/h 2.3 mph /  3.7 km/h 89 % 0.00 in /  0 mm
05:13 37.0 °F /  2.8 °C 33.8 °F /  1 °C 29.98 in /  1015.1 hPa Calm   1.2 mph /  1.9 km/h 88 % 0.00 in /  0 mm
05:18 37.0 °F /  2.8 °C 33.8 °F /  1 °C 29.99 in /  1015.5 hPa Calm     88 % 0.00 in /  0 mm
05:23 37.0 °F /  2.8 °C 33.8 °F /  1 °C 29.98 in /  1015.1 hPa Calm   1.2 mph /  1.9 km/h 88 % 0.00 in /  0 mm
05:28 36.9 °F /  2.7 °C 33.7 °F /  0.9 °C 29.98 in /  1015.1 hPa Calm     88 % 0.00 in /  0 mm
05:33 36.9 °F /  2.7 °C 33.7 °F /  0.9 °C 29.98 in /  1015.1 hPa Calm     88 % 0.00 in /  0 mm
05:38 36.8 °F /  2.7 °C 33.6 °F /  0.9 °C 29.97 in /  1014.8 hPa Calm   1.2 mph /  1.9 km/h 88 % 0.00 in /  0 mm
05:44 36.8 °F /  2.7 °C 33.9 °F /  1.1 °C 29.97 in /  1014.8 hPa Calm     89 % 0.00 in /  0 mm
05:49 36.7 °F /  2.6 °C 33.8 °F /  1 °C 29.97 in /  1014.8 hPa Calm     89 % 0.00 in /  0 mm
05:54 36.6 °F /  2.6 °C 33.7 °F /  0.9 °C 29.98 in /  1015.1 hPa Calm     89 % 0.00 in /  0 mm
05:59 36.6 °F /  2.6 °C 33.7 °F /  0.9 °C 29.99 in /  1015.5 hPa Calm     89 % 0.00 in /  0 mm
06:04 36.5 °F /  2.5 °C 33.6 °F /  0.9 °C 29.99 in /  1015.5 hPa Calm     89 % 0.00 in /  0 mm
06:09 36.4 °F /  2.4 °C 33.5 °F /  0.8 °C 29.99 in /  1015.5 hPa Calm     89 % 0.00 in /  0 mm
06:14 36.3 °F /  2.4 °C 33.4 °F /  0.8 °C 29.99 in /  1015.5 hPa Calm     89 % 0.00 in /  0 mm
06:19 36.2 °F /  2.3 °C 33.3 °F /  0.7 °C 29.99 in /  1015.5 hPa Calm     89 % 0.00 in /  0 mm
06:24 36.2 °F /  2.3 °C 33.3 °F /  0.7 °C 29.99 in /  1015.5 hPa Calm     89 % 0.00 in /  0 mm
06:29 36.1 °F /  2.3 °C 33.2 °F /  0.7 °C 29.99 in /  1015.5 hPa Calm     89 % 0.00 in /  0 mm
06:34 36.1 °F /  2.3 °C 33.2 °F /  0.7 °C 29.99 in /  1015.5 hPa Calm     89 % 0.00 in /  0 mm
06:39 36.0 °F /  2.2 °C 33.4 °F /  0.8 °C 30.00 in /  1015.8 hPa Calm     90 % 0.00 in /  0 mm
06:44 35.9 °F /  2.2 °C 33.3 °F /  0.7 °C 30.00 in /  1015.8 hPa Calm     90 % 0.00 in /  0 mm
06:49 35.8 °F /  2.1 °C 33.2 °F /  0.7 °C 29.99 in /  1015.5 hPa Calm     90 % 0.00 in /  0 mm
06:54 35.8 °F /  2.1 °C 33.2 °F /  0.7 °C 29.99 in /  1015.5 hPa Calm     90 % 0.00 in /  0 mm
06:59 35.7 °F /  2.1 °C 33.1 °F /  0.6 °C 30.00 in /  1015.8 hPa NE 1.4 mph /  2.3 km/h 2.3 mph /  3.7 km/h 90 % 0.00 in /  0 mm
07:04 35.6 °F /  2 °C 33.0 °F /  0.6 °C 30.00 in /  1015.8 hPa NE 1.5 mph /  2.4 km/h 3.0 mph /  4.8 km/h 90 % 0.00 in /  0 mm
07:09 35.5 °F /  1.9 °C 32.9 °F /  0.5 °C 30.00 in /  1015.8 hPa North 4.5 mph /  7.2 km/h 6.9 mph /  11.1 km/h 90 % 0.00 in /  0 mm
07:14 35.5 °F /  1.9 °C 32.9 °F /  0.5 °C 30.00 in /  1015.8 hPa NNE 4.3 mph /  6.9 km/h 8.1 mph /  13 km/h 90 % 0.00 in /  0 mm
07:20 35.6 °F /  2 °C 33.0 °F /  0.6 °C 30.00 in /  1015.8 hPa NNE 5.1 mph /  8.2 km/h 6.9 mph /  11.1 km/h 90 % 0.00 in /  0 mm
07:25 35.7 °F /  2.1 °C 33.1 °F /  0.6 °C 30.00 in /  1015.8 hPa NNE 5.0 mph /  8 km/h 7.0 mph /  11.3 km/h 90 % 0.00 in /  0 mm
07:30 35.8 °F /  2.1 °C 33.2 °F /  0.7 °C 29.99 in /  1015.5 hPa NE 4.8 mph /  7.7 km/h 8.1 mph /  13 km/h 90 % 0.00 in /  0 mm
07:35 36.0 °F /  2.2 °C 33.1 °F /  0.6 °C 29.99 in /  1015.5 hPa North 5.3 mph /  8.5 km/h 8.1 mph /  13 km/h 89 % 0.00 in /  0 mm
07:40 36.1 °F /  2.3 °C 33.2 °F /  0.7 °C 29.99 in /  1015.5 hPa NNE 2.2 mph /  3.5 km/h 3.5 mph /  5.6 km/h 89 % 0.00 in /  0 mm
07:45 36.2 °F /  2.3 °C 33.3 °F /  0.7 °C 29.99 in /  1015.5 hPa NNE 5.1 mph /  8.2 km/h 9.2 mph /  14.8 km/h 89 % 0.00 in /  0 mm
07:50 36.3 °F /  2.4 °C 33.4 °F /  0.8 °C 29.99 in /  1015.5 hPa NNE 4.5 mph /  7.2 km/h 5.8 mph /  9.3 km/h 89 % 0.00 in /  0 mm
07:55 36.4 °F /  2.4 °C 33.5 °F /  0.8 °C 29.98 in /  1015.1 hPa NNE 5.8 mph /  9.3 km/h 10.4 mph /  16.7 km/h 89 % 0.00 in /  0 mm
08:00 36.5 °F /  2.5 °C 33.3 °F /  0.7 °C 29.98 in /  1015.1 hPa NE 6.4 mph /  10.3 km/h 9.2 mph /  14.8 km/h 88 % 0.00 in /  0 mm
08:05 36.6 °F /  2.6 °C 33.4 °F /  0.8 °C 29.99 in /  1015.5 hPa NNE 5.7 mph /  9.2 km/h 8.1 mph /  13 km/h 88 % 0.00 in /  0 mm
08:10 36.7 °F /  2.6 °C 33.5 °F /  0.8 °C 29.98 in /  1015.1 hPa NNE 6.0 mph /  9.7 km/h 9.2 mph /  14.8 km/h 88 % 0.00 in /  0 mm
08:15 36.8 °F /  2.7 °C 33.6 °F /  0.9 °C 29.98 in /  1015.1 hPa NNE 7.3 mph /  11.7 km/h 10.4 mph /  16.7 km/h 88 % 0.00 in /  0 mm
08:20 37.0 °F /  2.8 °C 33.5 °F /  0.8 °C 29.99 in /  1015.5 hPa NNE 6.1 mph /  9.8 km/h 9.0 mph /  14.5 km/h 87 % 0.00 in /  0 mm
08:25 37.0 °F /  2.8 °C 33.5 °F /  0.8 °C 29.99 in /  1015.5 hPa North 6.1 mph /  9.8 km/h 9.2 mph /  14.8 km/h 87 % 0.00 in /  0 mm
08:30 37.2 °F /  2.9 °C 33.7 °F /  0.9 °C 29.99 in /  1015.5 hPa NNE 6.1 mph /  9.8 km/h 9.2 mph /  14.8 km/h 87 % 0.00 in /  0 mm
08:35 37.3 °F /  2.9 °C 33.8 °F /  1 °C 29.98 in /  1015.1 hPa NE 4.8 mph /  7.7 km/h 6.9 mph /  11.1 km/h 87 % 0.00 in /  0 mm
08:40 37.4 °F /  3 °C 33.9 °F /  1.1 °C 29.99 in /  1015.5 hPa NNE 2.8 mph /  4.5 km/h 6.9 mph /  11.1 km/h 87 % 0.00 in /  0 mm
08:46 37.5 °F /  3.1 °C 34.0 °F /  1.1 °C 29.99 in /  1015.5 hPa NNE 3.8 mph /  6.1 km/h 6.0 mph /  9.7 km/h 87 % 0.00 in /  0 mm
08:51 37.5 °F /  3.1 °C 34.0 °F /  1.1 °C 29.99 in /  1015.5 hPa NNE 3.0 mph /  4.8 km/h 7.0 mph /  11.3 km/h 87 % 0.00 in /  0 mm
08:56 37.6 °F /  3.1 °C 33.8 °F /  1 °C 29.98 in /  1015.1 hPa NNE 5.0 mph /  8 km/h 9.0 mph /  14.5 km/h 86 % 0.00 in /  0 mm
09:01 37.7 °F /  3.2 °C 33.9 °F /  1.1 °C 29.98 in /  1015.1 hPa NNE 4.2 mph /  6.8 km/h 8.1 mph /  13 km/h 86 % 0.00 in /  0 mm
09:06 37.7 °F /  3.2 °C 33.9 °F /  1.1 °C 29.98 in /  1015.1 hPa NNE 5.0 mph /  8 km/h 9.0 mph /  14.5 km/h 86 % 0.00 in /  0 mm
09:11 37.8 °F /  3.2 °C 34.0 °F /  1.1 °C 29.98 in /  1015.1 hPa NNE 5.0 mph /  8 km/h 9.0 mph /  14.5 km/h 86 % 0.00 in /  0 mm
09:16 37.9 °F /  3.3 °C 34.1 °F /  1.2 °C 29.98 in /  1015.1 hPa NNE 5.0 mph /  8 km/h 8.0 mph /  12.9 km/h 86 % 0.00 in /  0 mm
09:21 38.0 °F /  3.3 °C 34.2 °F /  1.2 °C 29.98 in /  1015.1 hPa NE 2.8 mph /  4.5 km/h 4.6 mph /  7.4 km/h 86 % 0.00 in /  0 mm
09:26 38.2 °F /  3.4 °C 34.4 °F /  1.3 °C 29.98 in /  1015.1 hPa NE 3.0 mph /  4.8 km/h 5.0 mph /  8 km/h 86 % 0.00 in /  0 mm
09:31 38.3 °F /  3.5 °C 34.5 °F /  1.4 °C 29.98 in /  1015.1 hPa NE 2.0 mph /  3.2 km/h 5.0 mph /  8 km/h 86 % 0.00 in /  0 mm
09:36 38.5 °F /  3.6 °C 34.4 °F /  1.3 °C 29.98 in /  1015.1 hPa NE 2.0 mph /  3.2 km/h 7.0 mph /  11.3 km/h 85 % 0.00 in /  0 mm
09:41 38.7 °F /  3.7 °C 34.6 °F /  1.4 °C 29.99 in /  1015.5 hPa ENE 2.0 mph /  3.2 km/h 5.0 mph /  8 km/h 85 % 0.00 in /  0 mm
09:46 38.8 °F /  3.8 °C 34.1 °F /  1.2 °C 29.98 in /  1015.1 hPa ENE 5.0 mph /  8 km/h 10.0 mph /  16.1 km/h 83 % 0.00 in /  0 mm
09:51 38.7 °F /  3.7 °C 34.0 °F /  1.1 °C 29.98 in /  1015.1 hPa ENE 4.7 mph /  7.6 km/h 7.0 mph /  11.3 km/h 83 % 0.00 in /  0 mm
09:56 38.6 °F /  3.7 °C 33.9 °F /  1.1 °C 29.98 in /  1015.1 hPa ENE 3.0 mph /  4.8 km/h 7.0 mph /  11.3 km/h 83 % 0.00 in /  0 mm
10:01 38.4 °F /  3.6 °C 34.0 °F /  1.1 °C 29.98 in /  1015.1 hPa ENE 3.7 mph /  6 km/h 4.6 mph /  7.4 km/h 84 % 0.00 in /  0 mm
10:06 38.4 °F /  3.6 °C 34.0 °F /  1.1 °C 29.98 in /  1015.1 hPa ENE 6.0 mph /  9.7 km/h 9.0 mph /  14.5 km/h 84 % 0.00 in /  0 mm
10:11 38.4 °F /  3.6 °C 33.7 °F /  0.9 °C 29.98 in /  1015.1 hPa ENE 5.0 mph /  8 km/h 9.0 mph /  14.5 km/h 83 % 0.00 in /  0 mm
10:16 38.4 °F /  3.6 °C 33.7 °F /  0.9 °C 29.98 in /  1015.1 hPa ENE 6.0 mph /  9.7 km/h 12.0 mph /  19.3 km/h 83 % 0.00 in /  0 mm
10:21 38.5 °F /  3.6 °C 33.8 °F /  1 °C 29.98 in /  1015.1 hPa ENE 6.0 mph /  9.7 km/h 9.0 mph /  14.5 km/h 83 % 0.00 in /  0 mm
10:26 38.6 °F /  3.7 °C 33.9 °F /  1.1 °C 29.98 in /  1015.1 hPa ENE 6.0 mph /  9.7 km/h 12.0 mph /  19.3 km/h 83 % 0.00 in /  0 mm
10:31 38.7 °F /  3.7 °C 34.0 °F /  1.1 °C 29.98 in /  1015.1 hPa ENE 7.0 mph /  11.3 km/h 10.0 mph /  16.1 km/h 83 % 0.00 in /  0 mm
10:36 38.8 °F /  3.8 °C 33.8 °F /  1 °C 29.97 in /  1014.8 hPa ENE 6.0 mph /  9.7 km/h 12.0 mph /  19.3 km/h 82 % 0.00 in /  0 mm
10:41 38.8 °F /  3.8 °C 33.8 °F /  1 °C 29.97 in /  1014.8 hPa ENE 6.0 mph /  9.7 km/h 12.0 mph /  19.3 km/h 82 % 0.00 in /  0 mm
10:46 38.7 °F /  3.7 °C 33.7 °F /  0.9 °C 29.97 in /  1014.8 hPa ENE 6.0 mph /  9.7 km/h 12.0 mph /  19.3 km/h 82 % 0.00 in /  0 mm
10:51 38.7 °F /  3.7 °C 34.0 °F /  1.1 °C 29.97 in /  1014.8 hPa NE 4.6 mph /  7.4 km/h 9.2 mph /  14.8 km/h 83 % 0.00 in /  0 mm
10:56 38.7 °F /  3.7 °C 34.0 °F /  1.1 °C 29.96 in /  1014.4 hPa ENE 6.0 mph /  9.7 km/h 10.0 mph /  16.1 km/h 83 % 0.00 in /  0 mm
11:01 38.7 °F /  3.7 °C 34.0 °F /  1.1 °C 29.96 in /  1014.4 hPa NE 5.6 mph /  9 km/h 11.5 mph /  18.5 km/h 83 % 0.00 in /  0 mm
11:06 38.6 °F /  3.7 °C 33.9 °F /  1.1 °C 29.96 in /  1014.4 hPa ENE 5.9 mph /  9.5 km/h 10.4 mph /  16.7 km/h 83 % 0.00 in /  0 mm
11:11 38.5 °F /  3.6 °C 33.8 °F /  1 °C 29.96 in /  1014.4 hPa ENE 6.2 mph /  10 km/h 9.2 mph /  14.8 km/h 83 % 0.00 in /  0 mm
11:16 38.3 °F /  3.5 °C 33.6 °F /  0.9 °C 29.95 in /  1014.1 hPa ENE 5.8 mph /  9.3 km/h 10.4 mph /  16.7 km/h 83 % 0.00 in /  0 mm
11:21 38.2 °F /  3.4 °C 33.5 °F /  0.8 °C 29.96 in /  1014.4 hPa ENE 4.9 mph /  7.9 km/h 9.2 mph /  14.8 km/h 83 % 0.00 in /  0 mm
11:26 38.2 °F /  3.4 °C 33.8 °F /  1 °C 29.96 in /  1014.4 hPa ENE 3.9 mph /  6.3 km/h 8.1 mph /  13 km/h 84 % 0.00 in /  0 mm
11:31 38.2 °F /  3.4 °C 33.5 °F /  0.8 °C 29.96 in /  1014.4 hPa NE 4.9 mph /  7.9 km/h 10.4 mph /  16.7 km/h 83 % 0.00 in /  0 mm
11:36 38.5 °F /  3.6 °C 34.1 °F /  1.2 °C 29.96 in /  1014.4 hPa ENE 4.6 mph /  7.4 km/h 10.4 mph /  16.7 km/h 84 % 0.00 in /  0 mm
11:41 38.8 °F /  3.8 °C 34.4 °F /  1.3 °C 29.95 in /  1014.1 hPa NE 5.1 mph /  8.2 km/h 8.1 mph /  13 km/h 84 % 0.00 in /  0 mm
11:46 39.0 °F /  3.9 °C 34.9 °F /  1.6 °C 29.95 in /  1014.1 hPa NE 3.2 mph /  5.1 km/h 5.8 mph /  9.3 km/h 85 % 0.00 in /  0 mm
11:51 39.4 °F /  4.1 °C 35.0 °F /  1.7 °C 29.95 in /  1014.1 hPa NE 2.9 mph /  4.7 km/h 4.6 mph /  7.4 km/h 84 % 0.00 in /  0 mm
11:56 39.7 °F /  4.3 °C 35.3 °F /  1.8 °C 29.94 in /  1013.8 hPa NE 2.5 mph /  4 km/h 3.5 mph /  5.6 km/h 84 % 0.00 in /  0 mm
12:01 40.1 °F /  4.5 °C 35.7 °F /  2.1 °C 29.93 in /  1013.4 hPa NE 3.1 mph /  5 km/h 4.6 mph /  7.4 km/h 84 % 0.00 in /  0 mm
12:06 40.2 °F /  4.6 °C 35.1 °F /  1.7 °C 29.93 in /  1013.4 hPa ENE 5.1 mph /  8.2 km/h 11.5 mph /  18.5 km/h 82 % 0.00 in /  0 mm
12:11 40.2 °F /  4.6 °C 35.1 °F /  1.7 °C 29.93 in /  1013.4 hPa ENE 2.8 mph /  4.5 km/h 4.6 mph /  7.4 km/h 82 % 0.00 in /  0 mm
12:16 40.1 °F /  4.5 °C 34.7 °F /  1.5 °C 29.92 in /  1013.1 hPa ENE 4.4 mph /  7.1 km/h 9.2 mph /  14.8 km/h 81 % 0.00 in /  0 mm
12:22 40.1 °F /  4.5 °C 34.7 °F /  1.5 °C 29.92 in /  1013.1 hPa ENE 6.2 mph /  10 km/h 11.5 mph /  18.5 km/h 81 % 0.00 in /  0 mm
12:27 40.1 °F /  4.5 °C 34.7 °F /  1.5 °C 29.91 in /  1012.8 hPa ENE 5.3 mph /  8.5 km/h 9.2 mph /  14.8 km/h 81 % 0.00 in /  0 mm
12:32 40.0 °F /  4.4 °C 34.6 °F /  1.4 °C 29.91 in /  1012.8 hPa ENE 4.7 mph /  7.6 km/h 10.4 mph /  16.7 km/h 81 % 0.00 in /  0 mm
12:37 40.0 °F /  4.4 °C 34.6 °F /  1.4 °C 29.91 in /  1012.8 hPa East 4.0 mph /  6.4 km/h 6.9 mph /  11.1 km/h 81 % 0.00 in /  0 mm
12:42 40.0 °F /  4.4 °C 34.9 °F /  1.6 °C 29.90 in /  1012.4 hPa NNE 3.0 mph /  4.8 km/h 6.9 mph /  11.1 km/h 82 % 0.00 in /  0 mm
12:47 40.3 °F /  4.6 °C 35.2 °F /  1.8 °C 29.90 in /  1012.4 hPa NNE 2.7 mph /  4.3 km/h 6.9 mph /  11.1 km/h 82 % 0.00 in /  0 mm
12:52 40.4 °F /  4.7 °C 35.0 °F /  1.7 °C 29.90 in /  1012.4 hPa ENE 6.6 mph /  10.6 km/h 8.1 mph /  13 km/h 81 % 0.00 in /  0 mm
12:57 40.3 °F /  4.6 °C 34.9 °F /  1.6 °C 29.90 in /  1012.4 hPa ENE 4.9 mph /  7.9 km/h 9.2 mph /  14.8 km/h 81 % 0.00 in /  0 mm
13:02 40.3 °F /  4.6 °C 34.6 °F /  1.4 °C 29.90 in /  1012.4 hPa ENE 6.9 mph /  11.1 km/h 10.4 mph /  16.7 km/h 80 % 0.00 in /  0 mm
13:07 40.1 °F /  4.5 °C 34.7 °F /  1.5 °C 29.89 in /  1012.1 hPa ENE 5.4 mph /  8.7 km/h 8.1 mph /  13 km/h 81 % 0.00 in /  0 mm
13:12 40.0 °F /  4.4 °C 34.6 °F /  1.4 °C 29.89 in /  1012.1 hPa NE 5.7 mph /  9.2 km/h 10.4 mph /  16.7 km/h 81 % 0.00 in /  0 mm
13:17 40.0 °F /  4.4 °C 34.6 °F /  1.4 °C 29.89 in /  1012.1 hPa NE 6.0 mph /  9.7 km/h 7.0 mph /  11.3 km/h 81 % 0.00 in /  0 mm
13:22 40.0 °F /  4.4 °C 34.6 °F /  1.4 °C 29.89 in /  1012.1 hPa ENE 5.8 mph /  9.3 km/h 8.1 mph /  13 km/h 81 % 0.00 in /  0 mm
13:27 40.0 °F /  4.4 °C 34.6 °F /  1.4 °C 29.89 in /  1012.1 hPa ENE 5.6 mph /  9 km/h 10.4 mph /  16.7 km/h 81 % 0.00 in /  0 mm
13:32 40.1 °F /  4.5 °C 35.0 °F /  1.7 °C 29.88 in /  1011.7 hPa ENE 5.3 mph /  8.5 km/h 8.1 mph /  13 km/h 82 % 0.00 in /  0 mm
13:37 40.1 °F /  4.5 °C 35.0 °F /  1.7 °C 29.89 in /  1012.1 hPa ENE 3.3 mph /  5.3 km/h 6.9 mph /  11.1 km/h 82 % 0.00 in /  0 mm
13:43 40.1 °F /  4.5 °C 34.7 °F /  1.5 °C 29.88 in /  1011.7 hPa ENE 5.0 mph /  8 km/h 10.4 mph /  16.7 km/h 81 % 0.00 in /  0 mm
13:48 40.0 °F /  4.4 °C 34.9 °F /  1.6 °C 29.88 in /  1011.7 hPa ENE 4.5 mph /  7.2 km/h 5.0 mph /  8 km/h 82 % 0.00 in /  0 mm
13:53 40.0 °F /  4.4 °C 34.9 °F /  1.6 °C 29.88 in /  1011.7 hPa NE 3.8 mph /  6.1 km/h 9.2 mph /  14.8 km/h 82 % 0.00 in /  0 mm
13:58 40.0 °F /  4.4 °C 34.9 °F /  1.6 °C 29.88 in /  1011.7 hPa ENE 3.9 mph /  6.3 km/h 5.8 mph /  9.3 km/h 82 % 0.00 in /  0 mm
14:03 39.9 °F /  4.4 °C 34.9 °F /  1.6 °C 29.87 in /  1011.4 hPa ENE 5.0 mph /  8 km/h 8.1 mph /  13 km/h 82 % 0.00 in /  0 mm
14:08 39.9 °F /  4.4 °C 34.9 °F /  1.6 °C 29.88 in /  1011.7 hPa ENE 5.8 mph /  9.3 km/h 8.1 mph /  13 km/h 82 % 0.00 in /  0 mm
14:13 39.9 °F /  4.4 °C 34.9 °F /  1.6 °C 29.87 in /  1011.4 hPa NE 4.1 mph /  6.6 km/h 6.9 mph /  11.1 km/h 82 % 0.00 in /  0 mm
14:18 40.0 °F /  4.4 °C 34.9 °F /  1.6 °C 29.87 in /  1011.4 hPa ENE 3.5 mph /  5.6 km/h 9.0 mph /  14.5 km/h 82 % 0.00 in /  0 mm
14:23 39.8 °F /  4.3 °C 34.8 °F /  1.6 °C 29.87 in /  1011.4 hPa ENE 5.3 mph /  8.5 km/h 8.1 mph /  13 km/h 82 % 0.00 in /  0 mm
14:28 39.8 °F /  4.3 °C 34.8 °F /  1.6 °C 29.86 in /  1011.1 hPa ENE 4.8 mph /  7.7 km/h 6.9 mph /  11.1 km/h 82 % 0.00 in /  0 mm
14:33 39.7 °F /  4.3 °C 34.7 °F /  1.5 °C 29.86 in /  1011.1 hPa ENE 5.3 mph /  8.5 km/h 9.2 mph /  14.8 km/h 82 % 0.00 in /  0 mm
14:38 39.6 °F /  4.2 °C 34.9 °F /  1.6 °C 29.86 in /  1011.1 hPa ENE 7.7 mph /  12.4 km/h 9.2 mph /  14.8 km/h 83 % 0.00 in /  0 mm
14:43 39.6 °F /  4.2 °C 34.9 °F /  1.6 °C 29.86 in /  1011.1 hPa ENE 5.8 mph /  9.3 km/h 10.4 mph /  16.7 km/h 83 % 0.00 in /  0 mm
14:48 39.5 °F /  4.2 °C 34.8 °F /  1.6 °C 29.85 in /  1010.7 hPa ENE 6.1 mph /  9.8 km/h 10.4 mph /  16.7 km/h 83 % 0.00 in /  0 mm
14:53 39.5 °F /  4.2 °C 34.8 °F /  1.6 °C 29.85 in /  1010.7 hPa ENE 4.8 mph /  7.7 km/h 10.4 mph /  16.7 km/h 83 % 0.00 in /  0 mm
14:58 39.5 °F /  4.2 °C 35.1 °F /  1.7 °C 29.85 in /  1010.7 hPa ENE 5.1 mph /  8.2 km/h 6.9 mph /  11.1 km/h 84 % 0.00 in /  0 mm
15:03 39.4 °F /  4.1 °C 35.0 °F /  1.7 °C 29.84 in /  1010.4 hPa ENE 3.9 mph /  6.3 km/h 6.9 mph /  11.1 km/h 84 % 0.00 in /  0 mm
15:09 39.4 °F /  4.1 °C 35.0 °F /  1.7 °C 29.85 in /  1010.7 hPa ENE 3.1 mph /  5 km/h 6.9 mph /  11.1 km/h 84 % 0.00 in /  0 mm
15:14 39.5 °F /  4.2 °C 35.4 °F /  1.9 °C 29.85 in /  1010.7 hPa East 2.8 mph /  4.5 km/h 5.0 mph /  8 km/h 85 % 0.00 in /  0 mm
15:19 39.5 °F /  4.2 °C 35.4 °F /  1.9 °C 29.84 in /  1010.4 hPa ENE 3.0 mph /  4.8 km/h 3.5 mph /  5.6 km/h 85 % 0.00 in /  0 mm
15:24 39.4 °F /  4.1 °C 35.0 °F /  1.7 °C 29.85 in /  1010.7 hPa ENE 3.6 mph /  5.8 km/h 4.6 mph /  7.4 km/h 84 % 0.00 in /  0 mm
15:29 39.4 °F /  4.1 °C 35.3 °F /  1.8 °C 29.85 in /  1010.7 hPa ENE 3.9 mph /  6.3 km/h 8.1 mph /  13 km/h 85 % 0.00 in /  0 mm
15:34 39.3 °F /  4.1 °C 35.2 °F /  1.8 °C 29.85 in /  1010.7 hPa ENE 3.3 mph /  5.3 km/h 7.0 mph /  11.3 km/h 85 % 0.00 in /  0 mm
15:39 39.3 °F /  4.1 °C 35.2 °F /  1.8 °C 29.84 in /  1010.4 hPa ENE 5.1 mph /  8.2 km/h 9.2 mph /  14.8 km/h 85 % 0.00 in /  0 mm
15:44 39.3 °F /  4.1 °C 35.2 °F /  1.8 °C 29.84 in /  1010.4 hPa ENE 3.5 mph /  5.6 km/h 4.6 mph /  7.4 km/h 85 % 0.00 in /  0 mm
15:49 39.3 °F /  4.1 °C 35.2 °F /  1.8 °C 29.85 in /  1010.7 hPa ENE 3.0 mph /  4.8 km/h 4.6 mph /  7.4 km/h 85 % 0.00 in /  0 mm
15:54 39.2 °F /  4 °C 35.1 °F /  1.7 °C 29.84 in /  1010.4 hPa NE 6.2 mph /  10 km/h 9.2 mph /  14.8 km/h 85 % 0.00 in /  0 mm
15:59 39.2 °F /  4 °C 34.8 °F /  1.6 °C 29.84 in /  1010.4 hPa ENE 6.9 mph /  11.1 km/h 10.4 mph /  16.7 km/h 84 % 0.00 in /  0 mm
16:04 39.3 °F /  4.1 °C 34.6 °F /  1.4 °C 29.84 in /  1010.4 hPa East 9.5 mph /  15.3 km/h 13.0 mph /  20.9 km/h 83 % 0.00 in /  0 mm
16:09 39.3 °F /  4.1 °C 34.3 °F /  1.3 °C 29.84 in /  1010.4 hPa ENE 8.7 mph /  14 km/h 16.1 mph /  25.9 km/h 82 % 0.00 in /  0 mm
16:14 39.4 °F /  4.1 °C 34.1 °F /  1.2 °C 29.84 in /  1010.4 hPa ENE 8.4 mph /  13.5 km/h 11.5 mph /  18.5 km/h 81 % 0.00 in /  0 mm
16:19 39.3 °F /  4.1 °C 34.0 °F /  1.1 °C 29.83 in /  1010 hPa ENE 10.0 mph /  16.1 km/h 13.8 mph /  22.2 km/h 81 % 0.00 in /  0 mm
16:24 39.3 °F /  4.1 °C 34.0 °F /  1.1 °C 29.83 in /  1010 hPa ENE 10.4 mph /  16.7 km/h 13.0 mph /  20.9 km/h 81 % 0.00 in /  0 mm
16:29 39.2 °F /  4 °C 33.9 °F /  1.1 °C 29.83 in /  1010 hPa East 10.4 mph /  16.7 km/h 14.0 mph /  22.5 km/h 81 % 0.00 in /  0 mm
16:34 39.1 °F /  3.9 °C 34.1 °F /  1.2 °C 29.83 in /  1010 hPa ENE 8.3 mph /  13.4 km/h 9.2 mph /  14.8 km/h 82 % 0.00 in /  0 mm
16:39 38.9 °F /  3.8 °C 33.9 °F /  1.1 °C 29.84 in /  1010.4 hPa ENE 7.8 mph /  12.6 km/h 11.5 mph /  18.5 km/h 82 % 0.00 in /  0 mm
16:45 38.8 °F /  3.8 °C 34.1 °F /  1.2 °C 29.83 in /  1010 hPa NE 7.7 mph /  12.4 km/h 11.5 mph /  18.5 km/h 83 % 0.00 in /  0 mm
16:50 38.7 °F /  3.7 °C 34.0 °F /  1.1 °C 29.83 in /  1010 hPa ENE 7.7 mph /  12.4 km/h 15.0 mph /  24.1 km/h 83 % 0.00 in /  0 mm
16:55 38.6 °F /  3.7 °C 33.9 °F /  1.1 °C 29.84 in /  1010.4 hPa ENE 5.7 mph /  9.2 km/h 10.4 mph /  16.7 km/h 83 % 0.00 in /  0 mm
17:00 38.6 °F /  3.7 °C 33.9 °F /  1.1 °C 29.84 in /  1010.4 hPa ENE 6.1 mph /  9.8 km/h 10.4 mph /  16.7 km/h 83 % 0.00 in /  0 mm
17:05 38.5 °F /  3.6 °C 34.1 °F /  1.2 °C 29.84 in /  1010.4 hPa ENE 4.7 mph /  7.6 km/h 8.1 mph /  13 km/h 84 % 0.00 in /  0 mm
17:10 38.4 °F /  3.6 °C 33.7 °F /  0.9 °C 29.84 in /  1010.4 hPa ENE 4.5 mph /  7.2 km/h 9.2 mph /  14.8 km/h 83 % 0.00 in /  0 mm
17:15 38.3 °F /  3.5 °C 33.6 °F /  0.9 °C 29.84 in /  1010.4 hPa ENE 6.3 mph /  10.1 km/h 9.2 mph /  14.8 km/h 83 % 0.00 in /  0 mm
17:20 38.2 °F /  3.4 °C 33.8 °F /  1 °C 29.84 in /  1010.4 hPa ENE 3.5 mph /  5.6 km/h 8.1 mph /  13 km/h 84 % 0.00 in /  0 mm
17:25 38.1 °F /  3.4 °C 34.0 °F /  1.1 °C 29.84 in /  1010.4 hPa ENE 4.7 mph /  7.6 km/h 6.9 mph /  11.1 km/h 85 % 0.00 in /  0 mm
17:30 38.0 °F /  3.3 °C 33.9 °F /  1.1 °C 29.84 in /  1010.4 hPa NE 4.0 mph /  6.4 km/h 8.1 mph /  13 km/h 85 % 0.00 in /  0 mm
17:35 37.8 °F /  3.2 °C 34.0 °F /  1.1 °C 29.84 in /  1010.4 hPa NE 3.6 mph /  5.8 km/h 6.0 mph /  9.7 km/h 86 % 0.00 in /  0 mm
17:40 37.8 °F /  3.2 °C 34.0 °F /  1.1 °C 29.84 in /  1010.4 hPa ENE 2.8 mph /  4.5 km/h 4.6 mph /  7.4 km/h 86 % 0.00 in /  0 mm
17:45 37.7 °F /  3.2 °C 33.9 °F /  1.1 °C 29.85 in /  1010.7 hPa ENE 4.5 mph /  7.2 km/h 6.9 mph /  11.1 km/h 86 % 0.00 in /  0 mm
17:50 37.7 °F /  3.2 °C 33.6 °F /  0.9 °C 29.85 in /  1010.7 hPa East 5.4 mph /  8.7 km/h 9.2 mph /  14.8 km/h 85 % 0.00 in /  0 mm
17:55 37.8 °F /  3.2 °C 33.4 °F /  0.8 °C 29.84 in /  1010.4 hPa NE 7.9 mph /  12.7 km/h 11.5 mph /  18.5 km/h 84 % 0.00 in /  0 mm
18:00 37.8 °F /  3.2 °C 33.4 °F /  0.8 °C 29.84 in /  1010.4 hPa NE 7.5 mph /  12.1 km/h 10.4 mph /  16.7 km/h 84 % 0.00 in /  0 mm
18:05 37.8 °F /  3.2 °C 33.4 °F /  0.8 °C 29.83 in /  1010 hPa NE 6.4 mph /  10.3 km/h 12.7 mph /  20.4 km/h 84 % 0.00 in /  0 mm
18:11 37.8 °F /  3.2 °C 33.4 °F /  0.8 °C 29.84 in /  1010.4 hPa ENE 7.0 mph /  11.3 km/h 12.0 mph /  19.3 km/h 84 % 0.00 in /  0 mm
18:15 37.8 °F /  3.2 °C 33.4 °F /  0.8 °C 29.84 in /  1010.4 hPa ENE 7.0 mph /  11.3 km/h 13.0 mph /  20.9 km/h 84 % 0.00 in /  0 mm
18:21 37.8 °F /  3.2 °C 33.1 °F /  0.6 °C 29.84 in /  1010.4 hPa ENE 7.0 mph /  11.3 km/h 13.0 mph /  20.9 km/h 83 % 0.00 in /  0 mm
18:26 37.8 °F /  3.2 °C 33.4 °F /  0.8 °C 29.83 in /  1010 hPa ENE 8.0 mph /  12.9 km/h 12.0 mph /  19.3 km/h 84 % 0.00 in /  0 mm
18:30 37.8 °F /  3.2 °C 33.4 °F /  0.8 °C 29.83 in /  1010 hPa ENE 7.0 mph /  11.3 km/h 15.0 mph /  24.1 km/h 84 % 0.00 in /  0 mm
18:36 37.8 °F /  3.2 °C 33.4 °F /  0.8 °C 29.83 in /  1010 hPa ENE 6.0 mph /  9.7 km/h 13.0 mph /  20.9 km/h 84 % 0.00 in /  0 mm
18:41 37.7 °F /  3.2 °C 33.0 °F /  0.6 °C 29.82 in /  1009.7 hPa ENE 8.0 mph /  12.9 km/h 13.0 mph /  20.9 km/h 83 % 0.00 in /  0 mm
18:45 37.7 °F /  3.2 °C 33.3 °F /  0.7 °C 29.82 in /  1009.7 hPa ENE 6.0 mph /  9.7 km/h 13.0 mph /  20.9 km/h 84 % 0.00 in /  0 mm
18:50 37.7 °F /  3.2 °C 33.3 °F /  0.7 °C 29.82 in /  1009.7 hPa ENE 5.0 mph /  8 km/h 9.0 mph /  14.5 km/h 84 % 0.00 in /  0 mm
18:55 37.6 °F /  3.1 °C 33.2 °F /  0.7 °C 29.82 in /  1009.7 hPa ENE 7.0 mph /  11.3 km/h 10.0 mph /  16.1 km/h 84 % 0.00 in /  0 mm
19:01 37.6 °F /  3.1 °C 33.2 °F /  0.7 °C 29.82 in /  1009.7 hPa NE 6.3 mph /  10.1 km/h 7.0 mph /  11.3 km/h 84 % 0.00 in /  0 mm
19:05 37.6 °F /  3.1 °C 33.2 °F /  0.7 °C 29.82 in /  1009.7 hPa ENE 8.0 mph /  12.9 km/h 12.0 mph /  19.3 km/h 84 % 0.00 in /  0 mm
19:10 37.6 °F /  3.1 °C 33.2 °F /  0.7 °C 29.82 in /  1009.7 hPa ENE 7.0 mph /  11.3 km/h 12.0 mph /  19.3 km/h 84 % 0.00 in /  0 mm
19:15 37.6 °F /  3.1 °C 33.2 °F /  0.7 °C 29.82 in /  1009.7 hPa ENE 9.0 mph /  14.5 km/h 14.0 mph /  22.5 km/h 84 % 0.00 in /  0 mm
19:21 37.6 °F /  3.1 °C 33.2 °F /  0.7 °C 29.82 in /  1009.7 hPa ENE 8.0 mph /  12.9 km/h 13.0 mph /  20.9 km/h 84 % 0.00 in /  0 mm
19:25 37.6 °F /  3.1 °C 33.2 °F /  0.7 °C 29.82 in /  1009.7 hPa ENE 9.0 mph /  14.5 km/h 15.0 mph /  24.1 km/h 84 % 0.00 in /  0 mm
19:30 37.6 °F /  3.1 °C 33.2 °F /  0.7 °C 29.82 in /  1009.7 hPa ENE 10.0 mph /  16.1 km/h 16.0 mph /  25.7 km/h 84 % 0.00 in /  0 mm
19:35 37.5 °F /  3.1 °C 33.1 °F /  0.6 °C 29.82 in /  1009.7 hPa ENE 9.0 mph /  14.5 km/h 15.0 mph /  24.1 km/h 84 % 0.00 in /  0 mm
19:40 37.5 °F /  3.1 °C 33.4 °F /  0.8 °C 29.81 in /  1009.4 hPa ENE 8.8 mph /  14.2 km/h 11.5 mph /  18.5 km/h 85 % 0.00 in /  0 mm
19:41 37.5 °F /  3.1 °C 33.4 °F /  0.8 °C 29.81 in /  1009.4 hPa NE 9.2 mph /  14.8 km/h 11.5 mph /  18.5 km/h 85 % 0.00 in /  0 mm
19:46 37.4 °F /  3 °C 33.3 °F /  0.7 °C 29.81 in /  1009.4 hPa ENE 8.3 mph /  13.4 km/h 13.0 mph /  20.9 km/h 85 % 0.00 in /  0 mm
19:51 37.3 °F /  2.9 °C 33.2 °F /  0.7 °C 29.81 in /  1009.4 hPa ENE 7.3 mph /  11.7 km/h 10.4 mph /  16.7 km/h 85 % 0.00 in /  0 mm
19:56 37.2 °F /  2.9 °C 33.4 °F /  0.8 °C 29.81 in /  1009.4 hPa ENE 7.0 mph /  11.3 km/h 9.2 mph /  14.8 km/h 86 % 0.00 in /  0 mm
20:01 37.1 °F /  2.8 °C 33.3 °F /  0.7 °C 29.81 in /  1009.4 hPa ENE 8.0 mph /  12.9 km/h 10.4 mph /  16.7 km/h 86 % 0.00 in /  0 mm
20:06 37.0 °F /  2.8 °C 33.5 °F /  0.8 °C 29.82 in /  1009.7 hPa ENE 7.2 mph /  11.6 km/h 10.4 mph /  16.7 km/h 87 % 0.00 in /  0 mm
20:11 36.9 °F /  2.7 °C 33.4 °F /  0.8 °C 29.82 in /  1009.7 hPa ENE 6.6 mph /  10.6 km/h 9.2 mph /  14.8 km/h 87 % 0.00 in /  0 mm
20:16 36.8 °F /  2.7 °C 33.3 °F /  0.7 °C 29.81 in /  1009.4 hPa ENE 5.6 mph /  9 km/h 9.2 mph /  14.8 km/h 87 % 0.00 in /  0 mm
20:21 36.8 °F /  2.7 °C 33.3 °F /  0.7 °C 29.81 in /  1009.4 hPa ENE 5.4 mph /  8.7 km/h 10.4 mph /  16.7 km/h 87 % 0.00 in /  0 mm
20:26 36.7 °F /  2.6 °C 33.2 °F /  0.7 °C 29.81 in /  1009.4 hPa East 8.8 mph /  14.2 km/h 13.8 mph /  22.2 km/h 87 % 0.00 in /  0 mm
20:32 36.6 °F /  2.6 °C 33.1 °F /  0.6 °C 29.81 in /  1009.4 hPa ENE 7.7 mph /  12.4 km/h 10.4 mph /  16.7 km/h 87 % 0.00 in /  0 mm
20:37 36.5 °F /  2.5 °C 33.0 °F /  0.6 °C 29.80 in /  1009 hPa ENE 8.5 mph /  13.7 km/h 11.5 mph /  18.5 km/h 87 % 0.00 in /  0 mm
20:39 36.5 °F /  2.5 °C 33.0 °F /  0.6 °C 29.80 in /  1009 hPa East 7.1 mph /  11.4 km/h 10.4 mph /  16.7 km/h 87 % 0.00 in /  0 mm
20:44 36.4 °F /  2.4 °C 33.2 °F /  0.7 °C 29.80 in /  1009 hPa East 8.2 mph /  13.2 km/h 11.5 mph /  18.5 km/h 88 % 0.00 in /  0 mm
20:49 36.3 °F /  2.4 °C 33.1 °F /  0.6 °C 29.80 in /  1009 hPa East 8.3 mph /  13.4 km/h 11.5 mph /  18.5 km/h 88 % 0.00 in /  0 mm
20:54 36.2 °F /  2.3 °C 33.0 °F /  0.6 °C 29.80 in /  1009 hPa ENE 8.5 mph /  13.7 km/h 10.4 mph /  16.7 km/h 88 % 0.00 in /  0 mm
20:59 36.1 °F /  2.3 °C 32.9 °F /  0.5 °C 29.79 in /  1008.7 hPa East 10.0 mph /  16.1 km/h 12.7 mph /  20.4 km/h 88 % 0.00 in /  0 mm
21:04 36.1 °F /  2.3 °C 32.9 °F /  0.5 °C 29.80 in /  1009 hPa NE 9.9 mph /  15.9 km/h 16.1 mph /  25.9 km/h 88 % 0.00 in /  0 mm
21:09 36.1 °F /  2.3 °C 32.6 °F /  0.3 °C 29.79 in /  1008.7 hPa East 9.0 mph /  14.5 km/h 13.0 mph /  20.9 km/h 87 % 0.00 in /  0 mm
21:14 36.0 °F /  2.2 °C 32.5 °F /  0.3 °C 29.79 in /  1008.7 hPa NE 8.6 mph /  13.8 km/h 12.0 mph /  19.3 km/h 87 % 0.00 in /  0 mm
21:19 36.0 °F /  2.2 °C 32.2 °F /  0.1 °C 29.79 in /  1008.7 hPa ENE 10.3 mph /  16.6 km/h 13.8 mph /  22.2 km/h 86 % 0.00 in /  0 mm
21:24 35.9 °F /  2.2 °C 31.8 °F /  -0.1 °C 29.79 in /  1008.7 hPa ENE 11.6 mph /  18.7 km/h 12.7 mph /  20.4 km/h 85 % 0.00 in /  0 mm
21:29 35.8 °F /  2.1 °C 31.7 °F /  -0.2 °C 29.79 in /  1008.7 hPa NE 8.5 mph /  13.7 km/h 13.8 mph /  22.2 km/h 85 % 0.00 in /  0 mm
21:34 35.7 °F /  2.1 °C 31.6 °F /  -0.2 °C 29.80 in /  1009 hPa East 8.5 mph /  13.7 km/h 14.0 mph /  22.5 km/h 85 % 0.00 in /  0 mm
21:39 35.6 °F /  2 °C 31.5 °F /  -0.3 °C 29.80 in /  1009 hPa East 8.1 mph /  13 km/h 12.7 mph /  20.4 km/h 85 % 0.00 in /  0 mm
21:44 35.6 °F /  2 °C 31.5 °F /  -0.3 °C 29.80 in /  1009 hPa NNE 9.4 mph /  15.1 km/h 13.0 mph /  20.9 km/h 85 % 0.00 in /  0 mm
21:50 35.4 °F /  1.9 °C 31.0 °F /  -0.6 °C 29.80 in /  1009 hPa ENE 10.4 mph /  16.7 km/h 13.8 mph /  22.2 km/h 84 % 0.00 in /  0 mm
21:55 35.4 °F /  1.9 °C 31.0 °F /  -0.6 °C 29.81 in /  1009.4 hPa ENE 8.0 mph /  12.9 km/h 15.0 mph /  24.1 km/h 84 % 0.00 in /  0 mm
22:00 35.3 °F /  1.8 °C 30.9 °F /  -0.6 °C 29.81 in /  1009.4 hPa ENE 6.7 mph /  10.8 km/h 13.8 mph /  22.2 km/h 84 % 0.00 in /  0 mm
22:05 35.2 °F /  1.8 °C 30.6 °F /  -0.8 °C 29.81 in /  1009.4 hPa ENE 10.7 mph /  17.2 km/h 15.0 mph /  24.1 km/h 83 % 0.00 in /  0 mm
22:10 35.1 °F /  1.7 °C 30.2 °F /  -1 °C 29.81 in /  1009.4 hPa ENE 10.3 mph /  16.6 km/h 15.0 mph /  24.1 km/h 82 % 0.00 in /  0 mm
22:15 35.0 °F /  1.7 °C 29.5 °F /  -1.4 °C 29.80 in /  1009 hPa ENE 10.6 mph /  17.1 km/h 15.0 mph /  24.1 km/h 80 % 0.00 in /  0 mm
22:20 34.8 °F /  1.6 °C 28.6 °F /  -1.9 °C 29.80 in /  1009 hPa ENE 9.0 mph /  14.5 km/h 16.1 mph /  25.9 km/h 78 % 0.00 in /  0 mm
22:25 34.7 °F /  1.5 °C 28.2 °F /  -2.1 °C 29.80 in /  1009 hPa NE 10.4 mph /  16.7 km/h 17.3 mph /  27.8 km/h 77 % 0.00 in /  0 mm
22:30 34.6 °F /  1.4 °C 27.8 °F /  -2.3 °C 29.79 in /  1008.7 hPa ENE 11.3 mph /  18.2 km/h 17.3 mph /  27.8 km/h 76 % 0.00 in /  0 mm
22:35 34.4 °F /  1.3 °C 27.6 °F /  -2.4 °C 29.78 in /  1008.4 hPa ENE 14.5 mph /  23.3 km/h 19.6 mph /  31.5 km/h 76 % 0.00 in /  0 mm
22:40 34.3 °F /  1.3 °C 27.8 °F /  -2.3 °C 29.78 in /  1008.4 hPa ENE 13.1 mph /  21.1 km/h 18.0 mph /  29 km/h 77 % 0.00 in /  0 mm
22:45 34.0 °F /  1.1 °C 27.5 °F /  -2.5 °C 29.78 in /  1008.4 hPa ENE 13.7 mph /  22 km/h 21.9 mph /  35.2 km/h 77 % 0.00 in /  0 mm
22:50 33.7 °F /  0.9 °C 27.3 °F /  -2.6 °C 29.78 in /  1008.4 hPa East 12.6 mph /  20.3 km/h 18.4 mph /  29.6 km/h 77 % 0.00 in /  0 mm
22:55 33.6 °F /  0.9 °C 27.8 °F /  -2.3 °C 29.78 in /  1008.4 hPa East 13.2 mph /  21.2 km/h 17.3 mph /  27.8 km/h 79 % 0.00 in /  0 mm
23:00 33.5 °F /  0.8 °C 27.7 °F /  -2.4 °C 29.77 in /  1008 hPa East 10.7 mph /  17.2 km/h 15.0 mph /  24.1 km/h 79 % 0.00 in /  0 mm
23:05 33.4 °F /  0.8 °C 27.3 °F /  -2.6 °C 29.77 in /  1008 hPa ENE 12.4 mph /  20 km/h 18.0 mph /  29 km/h 78 % 0.00 in /  0 mm
23:10 33.4 °F /  0.8 °C 27.3 °F /  -2.6 °C 29.77 in /  1008 hPa East 9.1 mph /  14.6 km/h 12.7 mph /  20.4 km/h 78 % 0.00 in /  0 mm
23:15 33.4 °F /  0.8 °C 27.6 °F /  -2.4 °C 29.78 in /  1008.4 hPa NE 8.7 mph /  14 km/h 11.5 mph /  18.5 km/h 79 % 0.00 in /  0 mm
23:20 33.3 °F /  0.7 °C 27.2 °F /  -2.7 °C 29.77 in /  1008 hPa ENE 9.5 mph /  15.3 km/h 15.0 mph /  24.1 km/h 78 % 0.00 in /  0 mm
23:25 33.2 °F /  0.7 °C 27.1 °F /  -2.7 °C 29.76 in /  1007.7 hPa ENE 10.5 mph /  16.9 km/h 11.5 mph /  18.5 km/h 78 % 0.00 in /  0 mm
23:30 33.2 °F /  0.7 °C 27.1 °F /  -2.7 °C 29.76 in /  1007.7 hPa ENE 10.6 mph /  17.1 km/h 13.8 mph /  22.2 km/h 78 % 0.00 in /  0 mm
23:36 33.0 °F /  0.6 °C 26.9 °F /  -2.8 °C 29.77 in /  1008 hPa ENE 6.0 mph /  9.7 km/h 17.0 mph /  27.4 km/h 78 % 0.00 in /  0 mm
23:41 33.0 °F /  0.6 °C 26.9 °F /  -2.8 °C 29.77 in /  1008 hPa ENE 9.0 mph /  14.5 km/h 16.0 mph /  25.7 km/h 78 % 0.00 in /  0 mm
23:46 32.9 °F /  0.5 °C 27.1 °F /  -2.7 °C 29.77 in /  1008 hPa ENE 13.0 mph /  20.9 km/h 16.0 mph /  25.7 km/h 79 % 0.00 in /  0 mm
23:51 32.8 °F /  0.4 °C 27.3 °F /  -2.6 °C 29.77 in /  1008 hPa East 7.0 mph /  11.3 km/h 7.0 mph /  11.3 km/h 80 % 0.00 in /  0 mm
23:56 32.6 °F /  0.3 °C 27.4 °F /  -2.6 °C 29.76 in /  1007.7 hPa ENE 10.0 mph /  16.1 km/h 16.0 mph /  25.7 km/h 81 % 0.00 in /  0 mm
Crab Meadow Weather
Compliments of Weather Underground - 3 mb

Script developed by  Jim McMurry - jmcmurry@mwt.net Adapted for the template by  Wim van der Kuil - Leuven-Template.eu

Extremes: By average annual rainfall, the wettest place in the world is Mawslynram, in Meghalaya State, India with 467 1/2 inches per annum.